Zurück zum Katalog

CZ-6A DEB

AktivSSO
NORAD 54303·DEBRIS·🇨🇳 China

Gestartet Nov 11, 2022 von Taiyuan Satellite Launch Center

Loading…

Nächste Überflüge (nächste 24 Stunden)

TLE

AktuellSource: Space-Track

Epoche: Sep 14, 2026, 10:56 UTC

1 54303U 22151AW  26257.45580767 -.00000064  00000-0 -11806-4 0  9992
2 54303  98.8609 257.3788 0047872  97.9173 262.7434 14.09122164196926

Verfolge CZ-6A DEB in Echtzeit mit AllMySat

Download on the App Store